Location: Stoke Bliss
(52.2667°N, 2.5167°W)
Time: 19:58:04
(UTC+00:00)

Cosmos 2360 Rocket - Pass Details

Date: 03 March 2021
Orbit: 832 x 846 km, 71.0° (Epoch: 16 April)

Event Time Altitude Azimuth Distance (km) Brightness Sun altitude
Rises 20:21:22 0° 223° (SW) 3,382 5.6 -23.1°
Reaches altitude 10° 20:23:50 10° 227° (SW) 2,454 4.9 -23.4°
Maximum altitude 20:29:24 59° 306° (NW) 975 2.7 -24.2°
Drops below altitude 10° 20:35:01 10° 26° (NNE) 2,477 4.6 -25.0°
Sets 20:37:31 0° 31° (NNE) 3,417 5.3 -25.4°
